1280361634616,1.34173
1280361694616,1.34658
1280361754616,1.34269
1280361814616,1.34481
1280361874616,1.33986
1280361934617,1.34463
1280361994617,1.34413
1280362054617,1.34273
1280362114617,1.35065
1280362174616,1.34230
1280362234617,1.34243
1280362294617,1.34111
1280362354617,1.35260
1280362414617,1.34138
1280362474617,1.34120
1280362534617,1.33929
1280362594617,1.35177
1280362654617,1.33992
1280362714617,1.33290
1280362774617,1.33403
1280362834617,1.34299
1280362894616,1.33743
1280362954616,1.34820
1280363014616,1.34178
1280363074616,1.34541
1280363134616,1.33789
1280363194616,1.33759
1280363254617,1.34166
1280363314617,1.33963
1280363374617,1.34821
1280363434617,1.33968
1280363494617,1.33711
1280363554616,1.33347
1280363614617,1.34371
1280363674617,1.33960
1280363734617,1.33618
1280363794617,1.33390
1280363854617,1.32880
1280363914617,1.32762
1280363974617,1.35309
1280364034617,1.33702
1280364094617,1.34111
1280364154617,1.36176
1280364214616,1.34275
1280364274616,1.34215
1280364334616,1.33808
1280364394616,1.33868
1280364454616,1.35365
1280364514616,1.34417
1280364574616,1.33261
1280364634617,1.33591
1280364694617,1.33438
1280364754617,1.34177
1280364814617,1.32955
1280364874616,1.34291
1280364934617,1.34784
1280364994617,1.32887
1280365054617,1.33962
1280365114617,1.33453
1280365174617,1.33850
1280365234620,1.33756
1280365294620,1.33604
1280365354620,1.33169
1280365414620,1.34418
1280365474620,1.33979
1280365534620,1.34117
1280365594620,1.34141
1280365654620,1.34038
1280365714620,1.35824
1280365774620,1.34929
1280365834620,1.34437
1280365894620,1.33884
1280365954620,1.33304
1280366014620,1.34421
1280366074620,1.34007
1280366134620,1.34820
1280366194620,1.33556
1280366254620,1.33963
1280366314620,1.34131
1280366374620,1.35336
1280366434620,1.34021
1280366494620,1.33903
1280366554620,1.34350
1280366614620,1.34829
1280366674620,1.34515
1280366734620,1.34796
1280366794620,1.34317
1280366854620,1.34147
1280366914620,1.33825
1280366974620,1.33995
1280367034620,1.33469
1280367094620,1.34010
1280367154620,1.34178
1280367214620,1.34100
1280367274620,1.34345
1280367334620,1.34767
1280367394620,1.34022
1280367454620,1.35043
1280367514620,1.35243
1280367574620,1.35670
1280367634620,1.35130
1280367694620,1.35824
1280367754620,1.36020
1280367814620,1.35575
1280367874620,1.35697
1280367934620,1.35724
1280367994620,1.36497
1280368054620,1.35950
1280368114620,1.36788
1280368174620,1.36515
1280368234620,1.35749
1280368294620,1.36545
1280368354620,1.36639
1280368414620,1.36179
1280368474620,1.37083
1280368534620,1.36565
1280368594620,1.36935
1280368654620,1.36464
1280368714620,1.37105
1280368774620,1.37043
1280368834623,1.37396
1280368894623,1.36534
1280368954623,1.37524
1280369014623,1.37372
1280369074623,1.37044
1280369134623,1.36735
1280369194623,1.36916
1280369254623,1.37233
1280369314623,1.37114
1280369374623,1.36765
1280369434623,1.36246
1280369494623,1.36626
1280369554623,1.37204
1280369614623,1.36731
1280369674623,1.37826
1280369734623,1.36953
1280369794623,1.36051
1280369854623,1.36851
1280369914623,1.36678
1280369974623,1.36432
1280370034623,1.36105
1280370094623,1.36059
1280370154623,1.36157
1280370214623,1.37148
1280370274623,1.36399
1280370334623,1.36751
1280370394623,1.36489
1280370454623,1.35626
1280370514623,1.36528
1280370574623,1.36938
1280370634623,1.38429
1280370694623,1.37947
1280370754623,1.37519
1280370814623,1.36737
1280370874623,1.36720
1280370934623,1.36662
1280370994623,1.37692
1280371054623,1.36070
1280371114623,1.36972
1280371174623,1.37133
1280371234623,1.37074
1280371294623,1.36759
1280371354623,1.37142
1280371414623,1.36365
1280371474623,1.36860
1280371534623,1.35867
1280371594623,1.36936
1280371654623,1.36569
1280371714623,1.36883
1280371774623,1.36500
1280371834623,1.36974
1280371894623,1.36687
1280371954623,1.35997
1280372014623,1.36119
1280372074623,1.37021
1280372134623,1.36825
1280372194623,1.37250
1280372254623,1.36256
1280372314623,1.36088
1280372374623,1.37082
1280372434625,1.36830
1280372494625,1.36159
1280372554625,1.37683
1280372614625,1.36509
1280372674625,1.36719
1280372734625,1.36751
1280372794625,1.36995
1280372854625,1.37438
1280372914625,1.36737
1280372974625,1.36719
1280373034625,1.36247
1280373094625,1.37464
1280373154625,1.39727
1280373214625,1.36415
1280373274625,1.35511
1280373334625,1.36415
1280373394625,1.36368
1280373454625,1.36114
1280373514625,1.36840
1280373574625,1.36799
1280373634625,1.36094
1280373694625,1.35833
1280373754625,1.35695
1280373814625,1.35032
1280373874625,1.35392
1280373934625,1.35251
1280373994625,1.35460
1280374054625,1.34534
1280374114625,1.35156
1280374174625,1.35446
1280374234625,1.34909
1280374294625,1.34721
1280374354625,1.36269
1280374414625,1.34994
1280374474625,1.35035
1280374534625,1.35544
1280374594625,1.35437
1280374654625,1.35408
1280374714625,1.35154
1280374774625,1.35060
1280374834625,1.34837
1280374894625,1.35205
1280374954625,1.35306
1280375014625,1.35041
1280375074625,1.34868
1280375134625,1.34796
1280375194625,1.34754
1280375254625,1.34686
1280375314625,1.34055
1280375374625,1.34859
1280375434625,1.35403
1280375494625,1.35352
1280375554625,1.34401
1280375614625,1.35024
1280375674625,1.33753
1280375734625,1.36479
1280375794625,1.34218
1280375854625,1.35408
1280375914625,1.33532
1280375974625,1.33932
1280376034627,1.35712
1280376094627,1.34441
1280376154627,1.34345
1280376214627,1.34090
1280376274627,1.34992
1280376334627,1.34954
1280376394627,1.33833
1280376454627,1.34323
1280376514627,1.34216
1280376574627,1.33650
1280376634627,1.34039
1280376694627,1.33311
1280376754627,1.33706
1280376814627,1.33254
1280376874627,1.34729
1280376934627,1.34376
1280376994627,1.33795
1280377054627,1.34331
1280377114627,1.34339
1280377174627,1.33494
1280377234627,1.33832
1280377294627,1.34538
1280377354627,1.33514
1280377414627,1.32972
1280377474627,1.34355
1280377534627,1.34012
1280377594627,1.33017
1280377654627,1.32377
1280377714627,1.32537
1280377774627,1.34267
1280377834627,1.33750
1280377894627,1.32876
1280377954627,1.32920
1280378014627,1.33577
1280378074627,1.32994
1280378134627,1.33198
1280378194627,1.32999
1280378254627,1.33768
1280378314627,1.33773
1280378374627,1.32737
1280378434627,1.33345
1280378494627,1.33277
1280378554627,1.36644
1280378614627,1.33697
1280378674627,1.33475
1280378734627,1.32906
1280378794627,1.33403
1280378854627,1.32876
1280378914627,1.33792
1280378974627,1.32085
1280379034627,1.33214
1280379094627,1.33483
1280379154627,1.32566
1280379214627,1.33167
1280379274627,1.33575
1280379334627,1.33171
1280379394627,1.32414
1280379454627,1.33548
1280379514627,1.33151
1280379574627,1.33102
1280379634628,1.33097
1280379694628,1.34322
1280379754629,1.33721
1280379814629,1.33969
1280379874629,1.33910
1280379934629,1.33383
1280379994629,1.33191
1280380054629,1.33400
1280380114629,1.32957
1280380174629,1.33516
1280380234628,1.33558
1280380294628,1.33007
1280380354628,1.33937
1280380414628,1.32679
1280380474628,1.34615
1280380534628,1.32654
1280380594628,1.32516
1280380654628,1.32599
1280380714628,1.33838
1280380774629,1.32909
1280380834629,1.33363
1280380894629,1.32542
1280380954628,1.32975
1280381014628,1.33407
1280381074629,1.32409
1280381134629,1.32604
1280381194629,1.32288
1280381254629,1.33301
1280381314629,1.32547
1280381374629,1.33475
1280381434629,1.33293
1280381494629,1.32631
1280381554629,1.32005
1280381614628,1.32545
1280381674628,1.32628
1280381734628,1.31540
1280381794628,1.32471
1280381854628,1.33266
1280381914628,1.32221
1280381974628,1.32541
1280382034628,1.32887
1280382094629,1.32743
1280382154629,1.33319
1280382214629,1.32973
1280382274628,1.33067
1280382334628,1.32126
1280382394628,1.32837
1280382454629,1.33261
1280382514629,1.33080
1280382574629,1.33047
1280382634629,1.31894
1280382694629,1.32935
1280382754629,1.32801
1280382814629,1.32602
1280382874629,1.34266
1280382934628,1.32653
1280382994628,1.33076
1280383054628,1.33272
1280383114628,1.33829
1280383174628,1.33376
1280383234630,1.33817
1280383294630,1.32398
1280383354630,1.33000
1280383414630,1.33090
1280383474630,1.33445
1280383534630,1.33730
1280383594630,1.33024
1280383654630,1.32698
1280383714630,1.32747
1280383774630,1.32596
1280383834630,1.32744
1280383894630,1.33281
1280383954630,1.31824
1280384014630,1.32268
1280384074630,1.32280
1280384134630,1.34518
1280384194630,1.33200
1280384254630,1.32638
1280384314630,1.32958
1280384374630,1.32629
1280384434630,1.33109
1280384494630,1.32772
1280384554630,1.32046
1280384614630,1.32025
1280384674630,1.32248
1280384734630,1.32004
1280384794630,1.32538
1280384854630,1.31799
1280384914630,1.32655
1280384974630,1.33172
1280385034630,1.31257
1280385094630,1.32575
1280385154630,1.32815
1280385214630,1.32363
1280385274630,1.32067
1280385334630,1.31539
1280385394630,1.32132
1280385454630,1.32214
1280385514630,1.31839
1280385574630,1.32496
1280385634630,1.31178
1280385694630,1.32275
1280385754630,1.31522
1280385814630,1.32183
1280385874630,1.31701
1280385934630,1.32407
1280385994630,1.31655
1280386054630,1.31826
1280386114630,1.31678
1280386174630,1.31198
1280386234630,1.31293
1280386294630,1.31004
1280386354630,1.31780
1280386414630,1.31843
1280386474630,1.32295
1280386534630,1.32351
1280386594630,1.31450
1280386654630,1.32022
1280386714630,1.31627
1280386774630,1.32378
1280386834631,1.28568
1280387434631,1.30577
1280387494631,1.30422
1280387554631,1.30991
1280387614631,1.32716
1280387674631,1.30881
1280387734631,1.31378
1280387794631,1.32073
1280387854631,1.31222
1280387914631,1.31981
1280387974631,1.31181
1280388034631,1.30945
1280388094631,1.31894
1280388154631,1.31156
1280388214631,1.32108
1280388274631,1.31671
1280388334631,1.31901
1280388394631,1.31553
1280388454631,1.30855
1280388514631,1.30055
1280388574631,1.32733
1280388634631,1.32827
1280388694631,1.32516
1280388754631,1.32445
1280388814631,1.31721
1280388874631,1.31606
1280388934631,1.32288
1280388994631,1.32178
1280389054631,1.32367
1280389114631,1.31593
1280389174631,1.32453
1280389234631,1.31894
1280389294631,1.32811
1280389354631,1.33114
1280389414631,1.33030
1280389474631,1.32343
1280389534631,1.32124
1280389594631,1.32723
1280389654631,1.33395
1280389714631,1.33218
1280389774631,1.32529
1280389834631,1.32636
1280389894631,1.33658
1280389954631,1.31775
1280390014631,1.33634
1280390074631,1.32540
1280390134631,1.31852
1280390194631,1.33012
1280390254631,1.32461
1280390314631,1.32298
1280390374631,1.31923
1280390434632,1.33013
1280390494632,1.32416
1280390554632,1.32427
1280390614632,1.32126
1280390674632,1.32780
1280390734632,1.32113
1280390794632,1.32871
1280390854632,1.32818
1280390914632,1.31822
1280390974632,1.32557
1280391034632,1.32971
1280391094632,1.33127
1280391154632,1.31866
1280391214632,1.31002
1280391274632,1.32546
1280391334632,1.31700
1280391394632,1.34878
1280391454632,1.35390
1280391514632,1.32352
1280391574632,1.32636
1280391634632,1.32607
1280391694632,1.31686
1280391754632,1.31838
1280391814632,1.32306
1280391874632,1.31683
1280391934632,1.32283
1280391994632,1.32108
1280392054632,1.31934
1280392114632,1.31338
1280392174632,1.32327
1280392234632,1.32406
1280392294632,1.32674
1280392354632,1.33223
1280392414632,1.32092
1280392474632,1.31964
1280392534632,1.33178
1280392594632,1.32389
1280392654632,1.32596
1280392714632,1.33207
1280392774632,1.33173
1280392834632,1.32534
1280392894632,1.32966
1280392954632,1.33517
1280393014632,1.32950
1280393074632,1.32211
1280393134632,1.32637
1280393194632,1.32413
1280393254632,1.32795
1280393314632,1.32503
1280393374632,1.33215
1280393434632,1.32856
1280393494632,1.32812
1280393554632,1.32710
1280393614632,1.31875
1280393674632,1.33367
1280393734632,1.32994
1280393794632,1.32263
1280393854632,1.33069
1280393914632,1.33539
1280393974632,1.33071
1280394034633,1.33390
1280394094633,1.32920
1280394154633,1.32532
1280394214633,1.34105
1280394274633,1.33975
1280394334633,1.33230
1280394394633,1.33025
1280394454633,1.32567
1280394514633,1.34168
1280394574633,1.33096
1280394634633,1.32473
1280394694633,1.33226
1280394754633,1.32875
1280394814633,1.32953
1280394874633,1.33018
1280394934633,1.33013
1280394994633,1.32429
1280395054633,1.33741
1280395114633,1.32851
1280395174633,1.33175
1280395234633,1.33722
1280395294633,1.32541
1280395354633,1.32521
1280395414633,1.32095
1280395474633,1.32904
1280395534633,1.31581
1280395594633,1.33124
1280395654633,1.33190
1280395714633,1.32232
1280395774633,1.32584
1280395834633,1.32436
1280395894633,1.32770
1280395954633,1.30808
1280396014633,1.33057
1280396074633,1.32086
1280396134633,1.31939
1280396194633,1.32508
1280396254633,1.31240
1280396314633,1.32537
1280396374633,1.32948
1280396434633,1.31954
1280396494633,1.32027
1280396554633,1.32448
1280396614633,1.32354
1280396674633,1.31868
1280396734633,1.32125
1280396794633,1.32789
1280396854633,1.32182
1280396914633,1.31946
1280396974633,1.32596
1280397034633,1.30762
1280397094633,1.32259
1280397154633,1.32532
1280397214633,1.32573
1280397274633,1.33015
1280397334633,1.32167
1280397394633,1.32310
1280397454633,1.32755
1280397514633,1.31824
1280397574633,1.32330
1280397634634,1.32584
1280397694634,1.32557
1280397754634,1.32947
1280397814634,1.33498
1280397874634,1.33777
1280397934634,1.33473
1280397994634,1.33945
1280398054634,1.33112
1280398114634,1.33241
1280398174634,1.36714
1280398234634,1.33843
1280398294634,1.33334
1280398354634,1.33062
1280398414634,1.34584
1280398474634,1.34117
1280398534634,1.34349
1280398594634,1.34354
1280398654634,1.34041
1280398714634,1.33527
1280398774634,1.33916
1280398834634,1.33915
1280398894634,1.34751
1280398954634,1.34768
1280399014634,1.34456
1280399074634,1.33720
1280399134634,1.34017
1280399194634,1.34860
1280399254634,1.34491
1280399314634,1.34088
1280399374634,1.35211
1280399434634,1.35405
1280399494634,1.39035
1280399554634,1.34489
1280399614634,1.34740
1280399674634,1.34571
1280399734634,1.35495
1280399794634,1.36258
1280399854634,1.34938
1280399914634,1.34740
1280399974634,1.35589
1280400034634,1.33892
1280400094634,1.35361
1280400154634,1.35269
1280400214634,1.35740
1280400274634,1.35903
1280400334634,1.35441
1280400394634,1.35655
1280400454634,1.34981
1280400514634,1.36067
1280400574634,1.36112
1280400634634,1.35317
1280400694634,1.37186
1280400754634,1.35604
1280400814634,1.36357
1280400874634,1.38283
1280400934634,1.35938
1280400994634,1.37107
1280401054634,1.35333
1280401114634,1.37013
1280401174634,1.35553
1280401234635,1.36848
1280401294635,1.36655
1280401354635,1.36013
1280401414635,1.36402
1280401474635,1.37009
1280401534635,1.37277
1280401594635,1.38156
1280401654635,1.37214
1280401714635,1.35770
1280401774635,1.36175
1280401834635,1.36186
1280401894635,1.37548
1280401954635,1.37213
1280402014635,1.37191
1280402074635,1.36894
1280402134635,1.37740
1280402194635,1.39516
1280402254635,1.39456
1280402314635,1.37419
1280402374635,1.37815
1280402434635,1.37914
1280402494635,1.38181
1280402554635,1.39186
1280402614635,1.37753
1280402674635,1.37539
1280402734635,1.38551
1280402794635,1.37834
1280402854635,1.38467
1280402914635,1.38657
1280402974635,1.38594
1280403034635,1.39085
1280403094635,1.39170
1280403154635,1.37096
1280403214635,1.39333
1280403274635,1.39170
1280403334635,1.37795
1280403394635,1.37707
1280403454635,1.38888
1280403514635,1.39149
1280403574635,1.38421
1280403634635,1.38957
1280403694635,1.39464
1280403754635,1.39422
1280403814635,1.37738
1280403874635,1.38907
1280403934635,1.38573
1280403994635,1.39481
1280404054635,1.39550
1280404114635,1.38518
1280404174635,1.37678
1280404234635,1.39496
1280404294635,1.37833
1280404354635,1.39829
1280404414635,1.37766
1280404474635,1.38644
1280404534635,1.38673
1280404594635,1.38649
1280404654635,1.38345
1280404714635,1.39131
1280404774635,1.38334
1280404834635,1.39133
1280404894635,1.39752
1280404954635,1.40132
1280405014635,1.39039
1280405074635,1.39995
1280405134635,1.38506
1280405194635,1.37471
1280405254635,1.38506
1280405314635,1.38148
1280405374635,1.39718
1280405434635,1.39020
1280405494635,1.40137
1280405554635,1.40555
1280405614635,1.40067
1280405674635,1.38658
1280405734635,1.38884
1280405794635,1.37635
1280405854635,1.39903
1280405914635,1.40079
1280405974635,1.38235
1280406034635,1.38928
1280406094635,1.39499
1280406154635,1.40132
1280406214635,1.39793
1280406274635,1.38852
1280406334635,1.39709
1280406394635,1.39058
1280406454635,1.38228
1280406514635,1.39846
1280406574635,1.38959
1280406634635,1.39462
1280406694635,1.38509
1280406754635,1.38757
1280406814635,1.38565
1280406874635,1.38490
1280406934635,1.39821
1280406994635,1.38851
1280407054635,1.38864
1280407114635,1.39665
1280407174635,1.40563
1280407234635,1.40340
1280407294635,1.39904
1280407354635,1.40704
1280407414635,1.38672
1280407474635,1.39296
1280407534635,1.39819
1280407594635,1.39426
1280407654635,1.39143
1280407714635,1.39331
1280407774635,1.39159
1280407834635,1.40238
1280407894635,1.40327
1280407954635,1.38969
1280408014635,1.39985
1280408074635,1.38488
1280408134635,1.38496
1280408194635,1.38843
1280408254635,1.40415
1280408314635,1.39560
1280408374635,1.38919
1280408434636,1.39384
1280408494636,1.39597
1280408554636,1.41741
1280408614636,1.39545
1280408674636,1.39558
1280408734636,1.39255
1280408794636,1.38046
1280408854636,1.40056
1280408914636,1.39167
1280408974636,1.39264
1280409034636,1.39931
1280409094636,1.39881
1280409154636,1.40260
1280409214636,1.39435
1280409274636,1.39299
1280409334636,1.39772
1280409394636,1.38793
1280409454636,1.38880
1280409514636,1.40510
1280409574636,1.39745
1280409634636,1.39870
1280409694636,1.38904
1280409754636,1.39263
1280409814636,1.37295
1280409874636,1.39030
1280409934636,1.38153
1280409994636,1.38522
1280410054636,1.40928
1280410114636,1.38838
1280410174636,1.39565
1280410234636,1.38984
1280410294636,1.38839
1280410354636,1.39241
1280410414636,1.38560
1280410474636,1.37764
1280410534636,1.38626
1280410594636,1.38530
1280410654636,1.37146
1280410714636,1.37275
1280410774636,1.37930
1280410834636,1.39106
1280410894636,1.38878
1280410954636,1.37549
1280411014636,1.37716
1280411074636,1.37540
1280411134636,1.36249
1280411194636,1.38755
1280411254636,1.39473
1280411314636,1.37336
1280411374636,1.36222
1280411434636,1.37181
1280411494636,1.38772
1280411554636,1.37569
1280411614636,1.41662
1280411674636,1.37767
1280411734636,1.38011
1280411794636,1.38604
1280411854636,1.37772
1280411914636,1.36529
1280411974636,1.37897
1280412034637,1.37330
1280412094637,1.36883
1280412154637,1.36897
1280412214637,1.36599
1280412274637,1.36859
1280412334637,1.37138
1280412394637,1.37540
1280412454637,1.37242
1280412514637,1.36881
1280412574637,1.37598
1280412634637,1.36034
1280412694637,1.37622
1280412754637,1.38035
1280412814637,1.37898
1280412874637,1.37603
1280412934637,1.37386
1280412994637,1.36679
1280413054637,1.37900
1280413114637,1.36654
1280413174637,1.37229
1280413234637,1.36000
1280413294637,1.35597
1280413354637,1.36470
1280413414637,1.36747
1280413474637,1.37427
1280413534637,1.38254
1280413594637,1.35592
1280413654637,1.36125
1280413714637,1.34887
1280413774637,1.35674
1280413834637,1.38027
1280413894637,1.36165
1280413954637,1.35887
1280414014637,1.35069
1280414074637,1.35374
1280414134637,1.35175
1280414194637,1.36122
1280414254637,1.34571
1280414314637,1.35487
1280414374637,1.34974
1280414434637,1.35264
1280414494637,1.35431
1280414554637,1.35856
1280414614637,1.35611
1280414674637,1.35897
1280414734637,1.35361
1280414794637,1.35593
1280414854637,1.35753
1280414914637,1.34620
1280414974637,1.35100
1280415034637,1.34619
1280415094637,1.34336
1280415154637,1.34727
1280415214637,1.34480
1280415274637,1.34090
1280415334637,1.35039
1280415394637,1.34097
1280415454637,1.34666
1280415514637,1.35276
1280415574637,1.34497
1280415634638,1.34052
1280415694638,1.34617
1280415754638,1.34152
1280415814638,1.34078
1280415874638,1.33386
1280415934638,1.35087
1280415994638,1.33329
1280416054638,1.33967
1280416114638,1.33762
1280416174638,1.35347
1280416234638,1.33847
1280416294638,1.34206
1280416354638,1.33619
1280416414638,1.33096
1280416474638,1.34041
1280416534638,1.34018
1280416594638,1.32934
1280416654638,1.33445
1280416714638,1.34897
1280416774638,1.34404
1280416834638,1.33315
1280416894638,1.33816
1280416954638,1.32222
1280417014638,1.34712
1280417074638,1.33316
1280417134638,1.33978
1280417194638,1.34310
1280417254638,1.33685
1280417314638,1.33968
1280417374638,1.33348
1280417434638,1.33179
1280417494638,1.34731
1280417554638,1.33312
1280417614638,1.32061
1280417674638,1.32981
1280417734638,1.34064
1280417794638,1.33414
1280417854638,1.32887
1280417914638,1.32851
1280417974638,1.33485
1280418034638,1.32886
1280418094638,1.33573
1280418154638,1.33786
1280418214638,1.33949
1280418274638,1.34020
1280418334638,1.33765
1280418394638,1.34329
1280418454638,1.33302
1280418514638,1.33058
1280418574638,1.33484
1280418634638,1.34112
1280418694638,1.34575
1280418754638,1.33725
1280418814638,1.32421
1280418874638,1.32706
1280418934638,1.32938
1280418994638,1.32951
1280419054638,1.33012
1280419114638,1.34135
1280419174638,1.34356
1280419234640,1.33280
1280419294640,1.33765
1280419354640,1.32388
1280419414640,1.33804
1280419474640,1.34006
1280419534640,1.33991
1280419594640,1.33955
1280419654640,1.33568
1280419714640,1.33375
1280419774640,1.32937
1280419834640,1.33896
1280419894640,1.32780
1280419954640,1.32869
1280420014640,1.33901
1280420074640,1.33550
1280420134640,1.33475
1280420194640,1.34328
1280420254640,1.32695
1280420314640,1.33606
1280420374640,1.34616
1280420434640,1.33911
1280420494640,1.34964
1280420554640,1.34138
1280420614640,1.33891
1280420674640,1.34313
1280420734640,1.34597
1280420794640,1.34569
1280420854640,1.33907
1280420914640,1.33404
1280420974640,1.33709
1280421034640,1.34201
1280421094640,1.34148
1280421154640,1.34931
1280421214640,1.33115
1280421274640,1.35249
1280421334640,1.33983
1280421394640,1.33664
1280421454640,1.33125
1280421514640,1.33813
1280421574640,1.36028
1280421634640,1.34666
1280421694640,1.33712
1280421754640,1.34670
1280421814640,1.35004
1280421874640,1.35561
1280421934640,1.34459
1280421994640,1.34577
1280422054640,1.34407
1280422114640,1.34386
1280422174640,1.34005
1280422234640,1.35484
1280422294640,1.34002
1280422354640,1.35239
1280422414640,1.35848
1280422474640,1.34827
1280422534640,1.35144
1280422594640,1.35402
1280422654640,1.35364
1280422714640,1.35818
1280422774640,1.35031
1280422834641,1.35825
1280422894641,1.36150
1280422954641,1.34641
1280423014641,1.34794
1280423074641,1.35622
1280423134641,1.34589
1280423194641,1.36073
1280423254641,1.35705
1280423314641,1.36507
1280423374641,1.37410
1280423434641,1.35227
1280423494641,1.36049
1280423554641,1.35945
1280423614641,1.37294
1280423674641,1.36041
1280423734641,1.36441
1280423794641,1.35461
1280423854641,1.35269
1280423914641,1.36674
1280423974641,1.36967
1280424034641,1.37536
1280424094641,1.36478
1280424154641,1.36453
1280424214641,1.35670
1280424274641,1.36911
1280424334641,1.35657
1280424394641,1.35889
1280424454641,1.37275
1280424514641,1.38347
1280424574641,1.37414
1280424634641,1.37950
1280424694641,1.36523
1280424754641,1.36954
1280424814641,1.35815
1280424874641,1.36686
1280424934641,1.35618
1280424994641,1.37227
1280425054641,1.37544
1280425114641,1.37334
1280425174641,1.37261
1280425234641,1.37746
1280425294641,1.36618
1280425354641,1.36744
1280425414641,1.37367
1280425474641,1.37677
1280425534641,1.36651
1280425594641,1.36950
1280425654641,1.37757
1280425714641,1.37152
1280425774641,1.38895
1280425834641,1.39088
1280425894641,1.38364
1280425954641,1.37599
1280426014641,1.37611
1280426074641,1.37551
1280426134641,1.38264
1280426194641,1.37477
1280426254641,1.37485
1280426314641,1.38092
1280426374641,1.39026
1280426434643,1.38618
1280426494643,1.42739
1280426554643,1.38837
1280426614643,1.39232
1280426674643,1.38870
1280426734643,1.39369
1280426794643,1.39157
1280426854643,1.38671
1280426914643,1.38778
1280426974643,1.38492
1280427034643,1.38974
1280427094643,1.39098
1280427154643,1.38647
1280427214643,1.39087
1280427274643,1.38792
1280427334643,1.38946
1280427394643,1.39599
1280427454643,1.39479
1280427514643,1.38104